Погода в Эшене

Лихтенштейн     47°12′44″N   9°31′23″E
темп.,
°C
ветер,
м/с
пор.,
м/с
влажн.,
%
обл.,
%
осадки,
мм/ч
давл.,
гПа
погр.,
м
16 июня, ср
ср1623:00+14ю2275100 0.0 101927
02:00+13ю3272100 0.0 101940
05:00+13ю3376100 0.0 101845
08:00+17ю2367100 0.0 1017120
11:00+24ссв1143100 0.0 10151109
14:00+25ссв3239100 0.0 10141523
17:00+23ссв2349100 0.0 1014704
20:00+19сз0075100 0.0 101411
17 июня, чт
чт1723:00+16ю2274100 0.0 101536
02:00+15ю348553 0.0 101668
05:00+14ю3584100 0.0 101683
08:00+18ю35705 0.0 1016203
11:00+25ю114598 0.0 10151041
14:00+27ссв323962 0.0 10131927
17:00+26с3444100 0.0 1013927
20:00+22зсз017254 0.0 101311
18 июня, пт
пт1823:00+17ю34837 0.1 101567
02:00+14ю45915 0.6 101685
05:00+13ююз349119 0.1 101756
08:00+18ю237611 0.1 1016169
11:00+25ю014762 0.0 10141155
14:00+27ссв3344100 0.0 10131810
17:00+20в117999 2.3 1013123
20:00+16юв2297100 6.4 101789
19 июня, сб
сб1923:00+15зсз0095100 1.3 101911
02:00+14ю239547 1.3 101845
05:00+13ю33946 0.0 101944
08:00+17ю2387100 0.0 101995
11:00+23св225425 0.0 1018900
14:00+26ссв2247100 0.0 10161324
17:00+26ссв3350100 0.0 1015854
20:00+22ссз117893 0.0 101512
20 июня, вс
вс2023:00+18ю32845 0.0 101638
02:00+17ю348076 0.0 101571
05:00+16ю457431 0.0 101489
08:00+20ю466998 0.0 1012204
11:00+28ююз243953 0.0 10101219
14:00+30ююз2731100 0.0 10082431
17:00+28ююв493997 0.0 10081594
20:00+15ссв359394 0.4 1014227